User: anonymous   Login
Location: Bazincourt
(49.5016°N, 1.8100°E)
Time: 08:26:06
(UTC+00:00)
Language:

Cosmos 2227 Rocket - Orbit

View from above orbital plane
View from above orbital plane
View from above satellite
View from above satellite

Ground track
Ground track

The orbit is defined by the following mean orbital elements,

1 22285U          26127.74881721 +.00000000 +00000-0 -40207-4 0 00006
2 22285  71.0224 240.2809 0006016 235.9373 124.1179 14.15461626    08
Epoch (UTC): 07 May 2026 17:58:17
Eccentricity: 0.0006016
inclination: 71.0224°
perigee height: 836 km
apogee height: 845 km
right ascension of ascending node: 240.2809°
argument of perigee: 235.9373°
revolutions per day: 14.15461626
mean anomaly at epoch: 124.1179°

The dashed part of the orbit path shows where the satellite is in the earth's shadow,  

DLR